Location: Jodlow
(50.1500°N, 16.7500°E)
Time: 12:21:10
(UTC+02:00)

O/OREOS (USA 219) - Pass Details

Date: 09 March 2024
Orbit: 621 x 646 km, 72.0° (Epoch: 22 May)

Event Time Altitude Azimuth Distance (km) Brightness Sun altitude
Exits shadow 03:46:21 88° 16° (NNE) 653 ? -24.7°
Drops below altitude 10° 03:50:56 10° 27° (NNE) 2,055 ? -24.0°
Sets 03:53:14 0° 28° (NNE) 2,970 ? -23.7°
